Location: Burbank
(38.7788°N, 114.0429°W)
Time: 05:04:16
(UTC+00:00)

Courier 1B Rocket - All Passes

Search period start: 10 May 2026 00:00
Search period end: 20 May 2026 00:00
Orbit: 920 x 1201 km, 28.3° (Epoch: 9 May)

Date Brightness Start Highest point End Pass type
(mag) Time Alt. Az. Time Alt. Az. Time Alt. Az.
10 May - 16:09:53 10° S 16:13:29 15° SSE 16:17:10 10° ESE daylight
10 May - 18:00:23 10° SW 18:06:00 30° SSE 18:11:56 10° ESE daylight
10 May - 19:52:46 10° WSW 19:58:50 34° S 20:05:18 10° ESE daylight
10 May - 21:46:11 10° WSW 21:51:44 24° SSW 21:57:32 10° SSE daylight
11 May - 15:11:36 10° SSE 15:12:36 10° SSE 15:13:35 10° SE daylight
11 May - 16:59:50 10° SW 17:04:58 25° SSE 17:10:20 10° ESE daylight
11 May - 18:51:48 10° WSW 18:57:42 34° S 19:03:59 10° ESE daylight
11 May - 20:44:49 10° WSW 20:50:35 28° SSW 20:56:40 10° SE daylight
11 May - 22:39:43 10° SW 22:43:20 14° SSW 22:47:02 10° S daylight
12 May - 15:59:33 10° SSW 16:04:00 20° SSE 16:08:36 10° ESE daylight
12 May - 17:50:57 10° SW 17:56:36 32° S 18:02:36 10° ESE daylight
12 May - 19:43:38 10° WSW 19:49:26 31° S 19:55:37 10° SE daylight
12 May - 21:37:35 10° WSW 21:42:14 19° SSW 21:47:04 10° SSE daylight
13 May - 14:59:43 10° S 15:03:05 15° SSE 15:06:32 10° ESE daylight
13 May - 16:50:13 10° SW 16:55:34 29° S 17:01:10 10° ESE daylight
13 May - 18:42:35 10° WSW 18:48:20 33° S 18:54:26 10° ESE daylight
13 May - 20:35:58 10° WSW 20:41:08 23° SSW 20:46:33 10° SSE daylight
14 May - 14:01:35 10° SSE 14:02:13 10° SSE 14:02:49 10° SSE daylight
14 May - 15:49:39 10° SW 15:54:36 24° SSE 15:59:40 10° ESE daylight
14 May - 17:41:38 10° WSW 17:47:16 33° S 17:53:11 10° ESE daylight
14 May - 19:34:39 10° WSW 19:40:03 27° SSW 19:45:44 10° SE daylight
14 May - 21:29:42 10° SW 21:32:43 13° SSW 21:35:49 10° S daylight
15 May - 14:49:19 10° SSW 14:53:39 20° SSE 14:58:03 10° ESE daylight
15 May - 16:40:46 10° SW 16:46:13 31° S 16:51:54 10° ESE daylight
15 May - 18:33:29 10° WSW 18:38:58 30° S 18:44:46 10° SE daylight
15 May - 20:27:29 10° WSW 20:31:40 17° SSW 20:36:01 10° SSE daylight
16 May - 13:49:24 10° S 13:52:44 15° SSE 13:56:06 10° SE daylight
16 May - 15:40:01 10° SW 15:45:13 28° S 15:50:35 10° ESE daylight
16 May - 17:32:26 10° WSW 17:37:55 31° S 17:43:40 10° SE daylight
16 May - 19:25:52 10° WSW 19:30:38 21° SSW 19:35:37 10° SSE daylight
17 May - 12:50:50 10° SSE 12:51:51 10° SSE 12:52:51 10° SE daylight
17 May - 14:39:23 10° SW 14:44:15 24° SSE 14:49:11 10° ESE daylight
17 May - 16:31:27 10° WSW 16:36:54 32° S 16:42:32 10° ESE daylight
17 May - 18:24:31 10° WSW 18:29:36 25° SSW 18:34:54 10° SE daylight
17 May - 20:19:55 10° SW 20:22:12 12° SSW 20:24:31 10° S daylight
18 May - 13:38:58 10° SSW 13:43:19 20° SSE 13:47:40 10° ESE daylight
18 May - 15:30:32 10° SW 15:35:54 31° S 15:41:21 10° ESE daylight
18 May - 17:23:20 10° WSW 17:28:35 28° S 17:34:03 10° SE daylight
18 May - 19:17:28 10° WSW 19:21:12 16° SSW 19:25:03 10° SSE daylight
19 May - 12:38:53 10° SSW 12:42:24 15° SSE 12:45:52 10° SE daylight
19 May - 14:29:42 10° SW 14:34:55 28° S 14:40:08 10° ESE daylight
19 May - 16:22:14 10° WSW 16:27:35 31° S 16:33:04 10° SE daylight
19 May - 18:15:46 10° WSW 18:20:13 20° SSW 18:24:49 10° SSE daylight
